Simultaneous Nadir Overpasses (SNOs) Predictions

Prediction of SNOs between NOAA-20 and LANDSAT-8 Satellite Orbit:

Table of predicted SNOs for the next 14.0 days since TLE Epoch: 8/17/2024
Index Date (NOAA-20) Time (NOAA-20) Lat,Lon (NOAA-20) SZA (NOAA-20 ) Date (LANDSAT-8) Time (LANDSAT-8) Lat,Lon (LANDSAT-8) SZA (LANDSAT-8 ) Distance(km) Time Diff (sec)
1 08/17/2024 23:01:25 70.10,-169.21 57.06 08/17/2024 23:02:14 70.08,-169.18 57.03 2.19 49
2 08/17/2024 23:52:06 -69.95, -1.66 123.09 08/17/2024 23:51:44 -69.97, -1.71 123.07 2.57 22
3 08/18/2024 00:42:33 68.94, 167.10 55.87 08/18/2024 00:41:27 68.98, 164.61 56.01 99.34 66
4 08/20/2024 15:18:17 70.07, -53.38 57.90 08/20/2024 15:18:45 70.06, -53.33 57.89 1.88 28
5 08/20/2024 16:08:59 -69.97, 114.09 122.20 08/20/2024 16:08:15 -69.96, 114.15 122.21 2.58 44
6 08/23/2024 06:44:32 -70.52,-105.61 120.75 08/23/2024 06:45:43 -70.40,-104.61 120.91 39.67 71
7 08/23/2024 07:35:08 70.00, 62.50 58.72 08/23/2024 07:35:15 70.02, 62.49 58.74 1.83 7
8 08/23/2024 08:25:50 -69.89,-130.03 121.38 08/23/2024 08:24:45 -69.91,-130.03 121.36 1.88 65
9 08/25/2024 23:01:15 -70.10, 10.82 120.27 08/25/2024 23:02:15 -70.11, 10.86 120.27 2.37 60
10 08/25/2024 23:51:58 69.95, 178.34 59.59 08/25/2024 23:51:43 69.94, 178.27 59.58 3.23 15
11 08/26/2024 00:42:31 -69.37, -13.48 121.01 08/26/2024 00:41:21 -69.40, -14.84 120.93 53.30 70
12 08/28/2024 15:18:06 -70.07, 126.64 119.37 08/28/2024 15:18:42 -70.07, 126.70 119.38 1.98 36
13 08/28/2024 16:08:49 69.93, -65.84 60.50 08/28/2024 16:08:09 69.95, -65.83 60.52 1.90 40



Historial Predications of SNOs between NOAA-20 and LANDSAT-8
